Location: Albany
(35.0000°S, 118.0000°E)
Time: 08:57:59
(UTC-04:00)

Amateur Radio Satellites - All Passes

Search period start: 30 October 2014 08:27
Search period end: 31 October 2014 08:27
Location: Albany, 35.0000°S, 118.0000°E

Satellite Date Start Highest point End Downlink Frequencies (MHz)
Time Altitude Azimuth
UKube-1 30 Oct 08:47:56 08:50:22 15° 86° (E) 08:52:46 145.840 MHz, 145.915 MHz
HO-68 30 Oct 08:59:07 09:06:17 66° 77° (ENE) 09:13:23 435.675 MHz FM
ISS 30 Oct 09:06:00 09:09:08 37° 48° (NE) 09:12:18 145.800 FM
SO-50 30 Oct 09:19:32 09:21:07 12° 73° (ENE) 09:22:42 436.795 FM
Oscar 11 30 Oct 09:22:43 09:26:50 37° 82° (E) 09:30:53 145.825 FM, Beacon 2401.500 USB
KITSAT 1 30 Oct 09:29:26 09:36:37 37° 73° (ENE) 09:43:50 435.175 FM
FUNcube-1 30 Oct 09:36:02 09:39:43 23° 85° (E) 09:43:23 145.950 - 145.970 MHz USB
UKube-1 30 Oct 10:22:33 10:26:42 41° 252° (WSW) 10:30:47 145.840 MHz, 145.915 MHz
ZACube-1 30 Oct 10:28:15 10:32:56 89° 258° (WSW) 10:37:36 437.345 MHz
Oscar 10/S400 30 Oct 10:41:42 20:31:40 56° 320° (NW) 21:04:10 145.825 - 145.975 CW/USB, Beacon 145.810 USB
ISS 30 Oct 10:43:16 10:45:56 21° 212° (SSW) 10:48:36 145.800 FM
HO-68 30 Oct 10:48:09 10:53:20 22° 241° (WSW) 10:58:30 435.675 MHz FM
Sapphire 30 Oct 10:53:16 10:58:15 35° 123° (ESE) 11:03:11 437.095 MHz 1200 baud AX-25 AFSK
SO-50 30 Oct 10:56:19 11:01:06 67° 239° (WSW) 11:05:51 436.795 FM
Oscar 11 30 Oct 10:59:50 11:02:40 17° 247° (WSW) 11:05:28 145.825 FM, Beacon 2401.500 USB
FUNcube-1 30 Oct 11:12:00 11:16:02 30° 251° (WSW) 11:20:03 145.950 - 145.970 MHz USB
PCSat 30 Oct 11:14:50 11:20:13 60° 118° (ESE) 11:25:33 145.825 MHz
KITSAT 1 30 Oct 11:24:08 11:31:47 45° 235° (SW) 11:39:32 435.175 FM
JAS-1B 30 Oct 11:24:27 11:31:49 25° 121° (ESE) 11:39:14 435.800 - 435.900 CW/SSB
Oscar 16 30 Oct 11:32:07 11:34:16 13° 117° (ESE) 11:36:24 437.025 USB, Beacon 2401.1428
UOSAT-12 30 Oct 11:47:41 11:51:43 34° 67° (ENE) 11:55:44 437.025 FM, 437.400 FM
ITAMSAT 1 30 Oct 12:11:06 12:12:40 11° 118° (ESE) 12:14:14 435.822 SSB
AO-Echo 30 Oct 12:16:30 12:19:35 16° 114° (ESE) 12:22:37 ?
Oscar 19 30 Oct 12:21:24 12:26:09 38° 109° (ESE) 12:30:59 437.125 CW, 437.150 USB
Sapphire 30 Oct 12:37:00 12:41:28 27° 287° (WNW) 12:45:55 437.095 MHz 1200 baud AX-25 AFSK
AO-27 30 Oct 12:54:53 12:59:29 33° 111° (ESE) 13:04:07 436.795 MHz FM
PCSat 30 Oct 13:00:03 13:03:03 15° 284° (WNW) 13:06:01 145.825 MHz
Gurwin Techsat 1B 30 Oct 13:04:23 13:08:16 21° 114° (ESE) 13:12:11 435.225 FM
Oscar 16 30 Oct 13:07:46 13:12:55 72° 282° (WNW) 13:18:10 437.025 USB, Beacon 2401.1428
JAS-1B 30 Oct 13:11:32 13:21:06 82° 284° (WNW) 13:31:09 435.800 - 435.900 CW/SSB
TMSAT-1 30 Oct 13:12:01 13:15:30 18° 115° (ESE) 13:19:01 436.925 FM
KITSAT 1 30 Oct 13:28:08 13:29:35 11° 211° (SSW) 13:31:03 435.175 FM
UOSAT-12 30 Oct 13:28:24 13:31:53 22° 231° (SW) 13:35:21 437.025 FM, 437.400 FM
Uribyol 2 30 Oct 13:38:33 13:43:44 87° 284° (WNW) 13:48:59 436.500 FM
ITAMSAT 1 30 Oct 13:46:13 13:51:25 79° 283° (WNW) 13:56:40 435.822 SSB
AO-Echo 30 Oct 13:52:59 13:57:55 50° 280° (W) 14:02:46 ?
Oscar 19 30 Oct 14:01:39 14:05:34 22° 275° (W) 14:09:32 437.125 CW, 437.150 USB
AO-7 30 Oct 14:06:30 14:12:54 25° 122° (ESE) 14:19:19 29.400 - 29.500 MHz
Saudisat 1A 30 Oct 14:13:27 14:17:40 43° 124° (ESE) 14:21:51 436.775 MHz
AO-27 30 Oct 14:34:40 14:38:57 26° 276° (W) 14:43:17 436.795 MHz FM
Gurwin Techsat 1B 30 Oct 14:42:50 14:47:52 43° 279° (W) 14:52:59 435.225 FM
TMSAT-1 30 Oct 14:49:49 14:54:57 51° 280° (W) 15:00:10 436.925 FM
JAS-1B 30 Oct 15:07:08 15:12:41 17° 267° (W) 15:18:24 435.800 - 435.900 CW/SSB
JAS-2 30 Oct 15:13:37 15:15:43 12° 118° (ESE) 15:17:45 435.800 - 435.900 CW/SSB, 435.910 FM
ISS 30 Oct 15:37:57 15:40:03 15° 152° (SSE) 15:42:08 145.800 FM
Uosat F 30 Oct 15:42:50 15:47:51 74° 105° (ESE) 15:52:55 435.120 FM
Saudisat 1A 30 Oct 15:54:12 15:56:51 16° 289° (WNW) 15:59:28 436.775 MHz
AO-7 30 Oct 15:56:36 16:04:55 69° 285° (WNW) 16:13:20 29.400 - 29.500 MHz
Hamsat 30 Oct 16:02:47 16:04:46 13° 114° (ESE) 16:06:47 145.90 MHz
OPAL 30 Oct 16:13:35 16:15:55 13° 86° (E) 16:18:13 ?
JAS-2 30 Oct 16:53:08 17:00:06 85° 104° (ESE) 17:06:16 435.800 - 435.900 CW/SSB, 435.910 FM
ISS 30 Oct 17:13:42 17:17:03 66° 315° (NW) 17:20:22 145.800 FM
KITSAT 1 30 Oct 17:27:57 17:30:56 12° 146° (SE) 17:33:54 435.175 FM
Hamsat 30 Oct 17:36:00 17:40:13 49° 279° (W) 17:44:31 145.90 MHz
SO-67 30 Oct 17:36:09 17:38:00 14° 111° (ESE) 17:39:52 435.3500 MHz FM
OPAL 30 Oct 17:49:55 17:55:10 65° 252° (WSW) 18:00:20 ?
STRAND 1 30 Oct 18:06:47 18:10:51 23° 85° (E) 18:14:52 ?
JAS-2 30 Oct 18:42:49 18:45:29 12° 273° (W) 18:48:03 435.800 - 435.900 CW/SSB, 435.910 FM
SO-67 30 Oct 19:07:44 19:10:41 26° 276° (W) 19:13:42 435.3500 MHz FM
RS-15 30 Oct 19:08:57 19:19:03 33° 76° (ENE) 19:29:18 29.354 - 29.394 USB, Beacon 29.352 USB
KITSAT 1 30 Oct 19:20:31 19:28:27 52° 123° (ESE) 19:36:17 435.175 FM
HO-68 30 Oct 19:24:25 19:30:46 35° 115° (ESE) 19:37:08 435.675 MHz FM
SO-50 30 Oct 19:31:29 19:35:46 42° 124° (SE) 19:39:57 436.795 FM
STRAND 1 30 Oct 19:45:23 19:50:03 35° 250° (WSW) 19:54:41 ?
Oscar 11 30 Oct 20:15:10 20:18:23 20° 111° (ESE) 20:21:38 145.825 FM, Beacon 2401.500 USB
UOSAT-12 30 Oct 20:21:16 20:23:34 14° 133° (SE) 20:25:52 437.025 FM, 437.400 FM
FUNcube-1 30 Oct 20:31:17 20:32:51 12° 115° (ESE) 20:34:26 145.950 - 145.970 MHz USB
HO-68 30 Oct 21:11:40 21:18:17 40° 279° (W) 21:24:58 435.675 MHz FM
SO-50 30 Oct 21:13:13 21:15:54 16° 289° (WNW) 21:18:33 436.795 FM
UKube-1 30 Oct 21:14:10 21:18:31 74° 282° (WNW) 21:22:56 145.840 MHz, 145.915 MHz
KITSAT 1 30 Oct 21:16:34 21:23:25 31° 286° (WNW) 21:30:14 435.175 FM
RS-15 30 Oct 21:18:36 21:30:38 67° 237° (WSW) 21:42:57 29.354 - 29.394 USB, Beacon 29.352 USB
ZACube-1 30 Oct 21:21:33 21:25:36 46° 106° (ESE) 21:29:47 437.345 MHz
MaSat-1 30 Oct 21:41:44 21:44:29 61° 245° (WSW) 21:47:37 437.345 MHz
Oscar 11 30 Oct 21:50:29 21:54:20 30° 277° (W) 21:58:14 145.825 FM, Beacon 2401.500 USB
UOSAT-12 30 Oct 21:59:41 22:04:04 62° 297° (WNW) 22:08:28 437.025 FM, 437.400 FM
FUNcube-1 30 Oct 22:04:35 22:08:41 51° 279° (W) 22:12:56 145.950 - 145.970 MHz USB
ZACube-1 30 Oct 23:00:39 23:02:16 12° 271° (W) 23:03:53 437.345 MHz
RS-15 30 Oct 23:37:19 23:46:06 22° 210° (SSW) 23:54:55 29.354 - 29.394 USB, Beacon 29.352 USB
PCSat 31 Oct 00:14:00 00:15:43 12° 78° (ENE) 00:17:26 145.825 MHz
Oscar 19 31 Oct 00:37:20 00:40:51 18° 87° (E) 00:44:19 437.125 CW, 437.150 USB
JAS-1B 31 Oct 01:04:18 01:11:42 39° 85° (E) 01:17:54 435.800 - 435.900 CW/SSB
AO-27 31 Oct 01:12:29 01:15:25 15° 87° (E) 01:18:20 436.795 MHz FM
Oscar 16 31 Oct 01:22:57 01:28:07 54° 80° (E) 01:33:12 437.025 USB, Beacon 2401.1428
Sapphire 31 Oct 01:31:19 01:36:40 64° 67° (ENE) 01:42:03 437.095 MHz 1200 baud AX-25 AFSK
PCSat 31 Oct 01:53:00 01:58:24 75° 243° (WSW) 02:03:51 145.825 MHz
Uribyol 2 31 Oct 01:54:50 01:59:51 44° 81° (E) 02:04:49 436.500 FM
RS-15 31 Oct 02:00:08 02:05:45 14° 173° (S) 02:11:18 29.354 - 29.394 USB, Beacon 29.352 USB
ITAMSAT 1 31 Oct 02:02:36 02:07:42 49° 80° (E) 02:12:44 435.822 SSB
AO-Echo 31 Oct 02:03:23 02:08:08 67° 78° (ENE) 02:12:53 ?
Oscar 19 31 Oct 02:15:21 02:20:22 46° 252° (WSW) 02:25:20 437.125 CW, 437.150 USB
PANSAT 31 Oct 02:47:13 02:49:26 15° 19° (NNE) 02:51:39 not established
AO-27 31 Oct 02:50:05 02:55:12 55° 253° (WSW) 03:00:17 436.795 MHz FM
JAS-1B 31 Oct 02:54:50 03:02:06 36° 244° (WSW) 03:08:17 435.800 - 435.900 CW/SSB
Gurwin Techsat 1B 31 Oct 03:02:08 03:07:32 82° 256° (WSW) 03:12:51 435.225 FM
Oscar 16 31 Oct 03:03:44 03:06:57 17° 245° (WSW) 03:10:10 437.025 USB, Beacon 2401.1428
TMSAT-1 31 Oct 03:08:52 03:14:15 85° 77° (ENE) 03:19:35 436.925 FM
Sapphire 31 Oct 03:17:00 03:20:32 17° 230° (SW) 03:24:04 437.095 MHz 1200 baud AX-25 AFSK
OPAL 31 Oct 03:25:03 03:28:15 17° 118° (ESE) 03:31:29 ?
Uribyol 2 31 Oct 03:35:13 03:38:57 20° 246° (WSW) 03:42:41 436.500 FM
PCSat 31 Oct 03:41:36 03:42:43 11° 225° (SW) 03:43:50 145.825 MHz
ITAMSAT 1 31 Oct 03:43:17 03:46:45 18° 245° (WSW) 03:50:12 435.822 SSB
AO-Echo 31 Oct 03:45:00 03:46:18 11° 244° (WSW) 03:47:36 ?
Uosat F 31 Oct 03:54:24 03:58:48 29° 83° (E) 04:03:09 435.120 FM
AO-7 31 Oct 04:02:07 04:10:15 52° 78° (ENE) 04:18:15 29.400 - 29.500 MHz
RS-15 31 Oct 04:13:30 04:24:00 33° 138° (SE) 04:34:01 29.354 - 29.394 USB, Beacon 29.352 USB
Saudisat 1A 31 Oct 04:17:14 04:20:47 24° 69° (ENE) 04:24:21 436.775 MHz
PANSAT 31 Oct 04:25:42 04:29:04 28° 7° (N) 04:32:26 not established
TMSAT-1 31 Oct 04:52:08 04:53:22 11° 241° (WSW) 04:54:36 436.925 FM
OPAL 31 Oct 05:01:44 05:06:38 52° 282° (WNW) 05:11:41 ?
STRAND 1 31 Oct 05:19:42 05:23:48 25° 112° (ESE) 05:27:54 ?
Hamsat 31 Oct 05:25:08 05:29:11 36° 83° (E) 05:33:08 145.90 MHz
Uosat F 31 Oct 05:33:13 05:37:27 27° 248° (WSW) 05:41:38 435.120 FM
JAS-2 31 Oct 05:50:57 05:56:12 82° 256° (WSW) 06:01:38 435.800 - 435.900 CW/SSB, 435.910 FM
AO-7 31 Oct 05:55:28 06:02:36 33° 241° (WSW) 06:09:41 29.400 - 29.500 MHz
Saudisat 1A 31 Oct 05:56:19 06:00:12 29° 234° (SW) 06:04:06 436.775 MHz
PANSAT 31 Oct 06:05:26 06:08:49 29° 354° (N) 06:12:13 not established
RS-15 31 Oct 06:25:43 06:37:39 76° 295° (WNW) 06:48:56 29.354 - 29.394 USB, Beacon 29.352 USB
SO-67 31 Oct 06:34:01 06:36:53 23° 84° (E) 06:39:43 435.3500 MHz FM
STRAND 1 31 Oct 06:58:09 07:02:46 34° 278° (W) 07:07:26 ?
Hamsat 31 Oct 07:02:00 07:04:46 17° 248° (WSW) 07:07:31 145.90 MHz
MaSat-1 31 Oct 07:27:24 07:31:45 81° 292° (WNW) 07:36:09 437.345 MHz
PANSAT 31 Oct 07:46:04 07:48:29 16° 342° (NNW) 07:50:53 not established
SO-67 31 Oct 08:07:31 08:09:37 15° 250° (WSW) 08:11:42 435.3500 MHz FM
ISS 31 Oct 08:17:38 08:20:08 20° 51° (NE) 08:22:40 145.800 FM
